Dewpoint
68 69 71 70 69 68 68 66 67 69 69 68 69 70 70 70 69 68 66 65 64 64 63 66 67 65 65 65 65 68 68 67 67 66 66 67 66 64 65 65 63 63 63
68 69 70 70 70 69 68 67 68 69 69 69 70 69 70 69 68 67 65 64 64 64 65 66 66 64 65 65 67 68 67 66 66 65 64 64 65 63 63 64 63 64 67
69 69 70 71 70 70 67 68 67 68 69 70 70 69 70 69 68 66 65 64 63 64 65 65 65 64 66 66 67 67 65 64 64 62 61 59 61 62 62 63 62 61 65
69 69 69 70 70 70 67 68 68 68 68 69 69 70 69 68 67 65 64 64 64 65 65 66 64 66 67 66 66 66 64 62 62 61 58 59 58 61 62 62 62 61 61
69 69 69 70 70 70 67 69 68 66 66 68 68 69 69 68 67 64 65 65 66 67 66 65 67 68 67 67 66 65 62 62 62 60 60 60 59 60 61 62 62 61 61
69 69 70 70 70 69 68 69 68 66 65 66 68 69 68 68 67 65 65 66 66 66 66 66 66 67 67 66 66 64 62 63 61 61 61 61 60 60 60 61 61 61 61
69 69 69 70 70 69 68 69 68 66 64 64 66 67 67 66 66 64 65 66 66 66 66 65 65 65 65 66 66 63 62 61 60 61 61 61 60 60 60 60 59 60 61
69 69 69 69 70 68 68 69 68 65 64 64 65 65 65 63 65 64 64 65 65 65 65 65 64 64 64 64 65 64 62 60 60 60 61 62 62 60 60 60 59 59 59
69 68 68 68 69 68 69 69 68 66 65 65 62 64 62 64 63 64 64 64 65 65 65 65 63 62 62 62 63 62 62 61 60 60 60 61 62 61 60 60 59 59 58
68 68 68 68 67 66 68 68 69 68 66 66 65 66 62 62 63 64 64 66 65 65 65 64 63 62 61 60 59 59 60 59 59 61 60 61 64 61 60 60 59 59 58
67 67 68 66 66 66 67 68 69 68 67 65 65 65 65 63 63 62 64 66 66 66 65 64 63 61 59 58 59 58 55 55 55 57 60 60 64 62 61 60 59 58 58
64 66 67 66 65 65 67 68 68 68 67 65 64 64 64 64 65 64 65 65 66 65 65 64 63 62 59 57 56 56 55 54 54 54 57 61 62 63 62 62 60 59 58
65 65 66 64 64 65 66 66 67 68 68 66 64 63 63 64 65 64 64 65 65 65 63 63 63 61 59 58 58 57 56 55 54 53 52 58 62 63 62 62 63 62 61
65 65 65 64 64 64 65 65 66 66 68 66 65 64 64 63 63 62 62 63 63 62 61 61 60 59 59 59 59 59 58 57 56 55 53 52 56 61 62 61 61 64 64
63 64 64 64 63 64 65 64 65 65 66 67 65 64 63 63 62 62 62 62 62 62 61 59 58 58 59 60 60 60 60 59 58 57 56 54 54 56 61 61 61 61 63
59 64 65 64 63 62 63 64 64 65 65 66 66 65 64 63 62 62 63 63 62 62 61 60 59 59 59 59 57 57 58 59 59 58 58 58 58 58 59 61 60 61 62
61 64 65 65 64 63 61 62 63 64 64 64 64 65 64 63 62 62 62 62 63 62 60 60 60 59 58 57 56 57 59 59 60 60 60 60 60 60 59 61 62 61 61
59 60 63 64 65 64 63 62 60 61 63 64 64 64 64 63 63 62 61 61 62 61 60 59 59 58 55 54 56 58 59 60 60 59 60 60 60 60 60 60 61 62 62
60 59 60 62 62 63 64 64 63 61 59 58 61 62 62 63 62 61 60 60 60 59 58 58 57 55 54 55 57 58 59 59 59 59 59 60 60 60 60 60 60 60 61
54 59 60 61 62 62 63 64 64 64 63 63 61 58 58 59 60 60 60 59 58 56 56 56 55 55 55 58 59 59 60 60 60 60 58 58 58 58 59 60 61 60 59
59 59 60 62 62 63 63 61 63 62 64 64 64 63 62 61 59 59 59 58 58 57 57 57 57 57 58 60 60 59 58 58 58 58 57 56 56 57 58 59 60 60 59
60 60 61 62 62 63 61 63 62 61 63 64 64 64 64 63 63 61 59 58 58 58 59 59 60 60 60 61 57 58 52 53 54 55 55 55 54 55 56 56 58 58 59
58 58 59 60 62 63 63 63 62 63 62 62 62 63 64 64 64 64 63 63 62 62 61 62 62 60 57 60 59 55 52 51 53 55 55 54 54 53 53 54 54 55 56
59 61 62 60 61 61 62 62 60 59 58 59 59 59 62 63 63 64 64 63 63 62 62 61 60 60 60 58 59 58 58 58 54 52 52 53 53 53 52 52 52 52 52
51 56 60 62 62 62 62 61 61 60 60 60 60 60 62 63 63 63 64 63 61 60 60 59 58 58 59 59 58 57 56 55 55 53 48 49 51 52 51 51 51 50 51
41 42 49 58 60 62 62 62 61 60 60 60 60 61 61 61 61 62 62 62 61 60 58 58 58 58 57 55 54 54 53 50 49 50 49 49 49 50 50 49 49 48 49
Wind_Speed
18 22 24 24 22 20 18 18 17 15 16 19 20 21 23 23 23 22 22 21 19 18 20 19 18 19 18 18 17 18 19 19 19 17 15 15 17 17 17 14 13 13 12
23 24 24 24 21 21 19 18 17 14 14 17 22 23 23 23 22 21 20 20 20 20 19 18 18 18 17 17 16 18 15 16 16 15 15 16 15 13 14 15 11 14 13
24 24 24 23 21 21 20 18 17 15 13 16 20 23 24 23 22 20 20 20 20 20 19 17 16 15 14 14 14 14 14 14 14 14 13 11 12 13 13 13 15 14 15
23 23 22 22 22 21 20 19 17 15 14 14 20 23 23 23 21 19 19 19 19 18 18 16 15 12 12 13 13 13 13 13 13 12 11 11 12 12 12 12 11 12 13
22 21 21 22 22 21 20 19 18 16 14 13 16 20 22 23 20 19 18 17 16 16 17 16 13 13 14 14 14 13 12 12 12 11 11 10 10 12 12 11 10 10 11
21 20 22 22 22 21 20 18 20 16 15 14 15 17 19 21 18 18 16 14 14 15 15 14 13 13 12 13 12 12 12 11 9 10 9 9 10 11 12 11 11 10 10
21 20 21 23 22 19 19 19 20 17 15 14 15 16 17 18 16 16 16 14 13 14 13 13 13 12 12 10 10 10 10 9 8 8 8 8 9 10 11 11 10 10 9
21 21 21 22 22 19 19 19 21 18 17 16 14 14 13 15 16 16 15 14 13 13 13 12 11 10 11 10 9 9 8 7 6 7 6 6 7 9 9 9 9 9 9
22 21 19 19 19 19 17 18 21 19 17 15 16 14 16 16 16 15 14 14 13 12 11 10 10 9 8 8 8 7 6 5 4 4 4 4 3 6 7 7 8 8 8
22 21 19 17 17 18 18 19 19 20 19 15 14 13 17 15 14 14 13 11 11 10 9 8 8 8 7 6 5 5 5 4 2 1 1 1 1 3 4 5 5 6 6
19 19 18 17 16 16 17 16 18 20 19 19 15 14 13 12 12 12 9 8 9 9 8 7 6 6 6 5 4 2 1 1 1 1 2 3 3 0 1 2 2 3 3
18 15 19 18 16 17 14 14 15 16 16 15 14 13 10 10 9 8 8 8 7 6 6 5 4 4 3 3 2 2 1 1 2 1 2 4 5 4 3 3 2 2 2
17 14 17 18 15 16 15 11 9 11 12 13 14 11 10 8 6 6 6 6 5 4 4 3 3 2 2 2 2 2 2 2 2 3 3 5 7 7 6 6 6 6 5
18 20 16 17 17 14 12 11 9 9 10 11 12 13 10 8 7 6 5 5 4 4 4 3 3 3 3 3 2 2 2 3 3 3 4 6 7 9 10 8 8 10 8
22 20 21 16 18 19 15 11 11 9 9 11 12 11 9 8 9 7 6 5 5 4 4 4 4 4 4 3 3 4 5 5 5 5 5 7 8 9 11 12 12 12 11
27 20 21 16 12 10 21 19 13 10 11 11 11 11 11 9 8 8 7 7 6 6 5 5 5 5 5 4 5 5 5 5 5 5 5 6 9 10 12 14 15 14 13
17 20 20 20 11 11 9 18 18 14 11 11 12 13 13 11 10 9 7 7 7 6 5 5 5 5 5 5 7 6 5 6 6 7 6 7 6 7 10 12 14 15 16
16 16 12 3 7 8 10 11 14 17 15 14 14 14 15 13 12 10 9 9 8 7 6 7 6 6 6 6 6 6 6 6 8 9 8 7 6 6 8 11 11 13 14
14 13 11 13 13 13 12 14 12 16 14 11 10 11 13 14 14 13 11 10 8 7 8 8 7 7 7 7 8 8 8 8 8 7 9 7 7 8 8 10 11 11 13
24 25 19 18 15 17 17 11 8 10 10 9 7 8 12 14 15 15 12 12 10 8 8 8 10 8 8 8 7 9 8 7 7 8 8 6 8 9 9 9 8 7 9
16 16 20 24 23 21 15 8 13 13 8 5 7 11 11 8 9 13 12 12 11 12 14 14 10 10 10 8 7 4 5 6 9 7 5 5 3 4 6 6 5 4 3
26 21 20 21 22 13 7 3 6 4 4 4 10 8 4 3 6 9 10 8 9 9 10 13 12 8 9 7 5 3 7 9 4 2 2 4 4 4 4 5 4 2 2
21 21 20 16 14 14 10 9 4 3 2 2 3 2 4 5 7 4 2 2 2 4 6 4 5 11 6 1 5 6 5 4 3 4 3 3 2 3 3 3 2 1 1
10 15 14 23 27 17 14 8 16 14 15 12 14 11 9 12 11 14 13 9 11 8 4 3 3 5 5 8 3 1 4 5 8 9 2 1 5 5 4 3 2 1 2
12 17 11 10 11 9 15 25 19 18 15 18 14 14 11 9 13 15 13 18 14 15 13 8 4 6 5 8 8 3 4 2 3 6 9 6 4 2 3 3 2 1 0
3 5 8 8 7 7 8 12 15 17 14 12 11 14 16 14 12 12 13 13 12 10 13 13 13 11 9 7 6 7 6 4 4 5 7 9 10 5 3 4 3 3 3
Wind_Direction
159 159 157 150 149 141 134 132 132 130 138 143 139 136 131 128 126 122 118 120 120 124 116 112 105 96 101 99 98 91 84 82 83 79 70 65 73 68 64 92 75 68 66
152 156 158 149 150 141 138 136 135 123 129 147 143 139 136 134 129 121 123 124 125 123 123 115 107 106 103 103 103 93 84 83 79 70 64 64 62 70 58 43 67 66 80
150 154 157 151 148 140 139 137 138 128 122 143 143 142 138 134 127 128 129 128 127 129 123 117 114 107 104 107 103 91 84 78 79 77 72 78 77 76 74 57 56 57 72
150 155 156 151 146 140 143 141 141 133 122 130 145 142 140 128 126 127 130 130 131 128 122 116 109 106 111 113 105 92 86 84 82 78 77 75 78 75 76 76 72 60 44
151 154 153 151 147 140 145 144 139 135 128 118 132 138 136 126 128 130 131 129 126 123 119 114 107 103 107 111 104 96 94 90 85 81 78 74 74 76 79 79 77 73 57
152 155 153 150 144 142 145 147 138 133 132 125 121 124 125 125 128 130 128 120 119 127 122 112 103 100 108 110 105 99 99 95 87 83 80 76 77 79 79 78 77 76 69
153 154 156 148 140 143 144 144 136 138 134 137 132 132 129 124 129 133 132 126 130 128 121 113 106 102 101 106 110 105 101 97 94 89 82 78 79 81 80 79 78 77 74
153 151 154 148 141 145 144 147 134 139 138 141 141 142 139 138 134 137 135 134 133 131 128 122 114 111 109 108 117 121 115 105 93 88 85 80 77 81 82 82 78 75 72
153 148 153 145 144 142 139 145 139 140 139 143 147 143 142 138 140 139 138 137 135 133 129 124 117 109 104 104 106 113 132 120 109 93 85 84 42 77 79 83 82 80 77
150 147 146 145 147 144 140 145 145 141 140 135 135 129 138 140 147 140 140 134 131 129 126 120 116 109 101 96 100 103 113 119 114 155 120 107 325 84 87 86 84 80 76
151 148 146 147 146 142 142 143 151 146 144 139 136 132 131 146 152 150 141 136 132 132 130 123 113 103 99 90 79 75 119 73 351 242 232 237 263 218 119 102 92 93 93
153 152 153 151 150 146 144 141 148 160 150 145 144 148 148 151 154 156 154 152 151 146 142 137 127 114 111 118 111 93 144 286 290 291 256 255 261 259 228 214 215 209 185
162 153 156 150 151 151 148 147 138 142 145 142 142 150 148 148 153 161 162 168 171 168 177 173 167 168 167 172 161 168 215 266 288 290 282 268 262 262 266 237 234 239 234
168 164 160 154 154 153 146 150 147 147 143 137 152 156 156 157 168 174 180 181 190 195 206 221 223 217 208 208 227 239 229 242 258 270 274 276 272 266 265 265 250 244 232
185 165 168 164 163 157 149 151 156 162 163 161 159 167 164 168 177 180 185 192 208 205 214 233 239 234 232 235 242 258 260 255 261 265 270 270 267 262 258 260 258 249 244
201 165 165 171 162 173 160 161 166 169 174 172 174 179 182 182 184 190 197 207 212 210 217 227 234 236 247 250 254 243 257 257 255 258 265 271 261 263 266 261 259 262 259
187 157 163 155 175 186 196 169 164 170 175 185 186 190 192 194 199 201 213 224 229 215 217 217 229 244 258 251 253 251 244 257 263 258 254 260 267 268 275 270 270 259 261
187 165 133 157 173 213 210 220 168 167 178 197 193 192 198 202 205 209 218 230 225 215 217 219 220 236 246 245 254 253 244 244 255 256 258 260 268 282 290 279 272 263 256
150 165 158 186 202 207 220 206 188 168 177 186 205 199 198 206 208 214 217 230 219 220 221 226 224 226 238 241 249 253 258 245 257 262 264 268 283 281 275 278 270 261 255
165 196 193 189 201 201 208 195 184 175 174 167 196 219 212 208 215 213 214 217 211 215 227 221 222 211 233 244 254 260 268 271 267 262 275 285 289 288 282 273 273 265 265
192 184 190 195 201 205 205 181 186 168 145 134 196 226 238 230 239 239 223 205 198 210 218 217 220 224 236 238 257 281 287 289 272 280 283 280 296 325 326 304 279 264 261
192 182 194 199 214 217 182 108 55 71 89 156 191 191 184 196 228 246 241 242 197 215 229 219 209 216 224 189 267 279 315 313 321 300 305 315 325 341 349 351 341 314 152
188 200 202 199 223 218 134 128 119 123 156 223 258 138 152 170 169 218 200 137 143 212 238 244 253 251 264 357 341 305 316 275 309 299 291 302 346 350 357 353 21 56 103
212 219 173 194 228 228 162 182 214 217 229 244 243 239 236 192 184 195 170 152 132 99 36 137 10 2 10 315 324 27 277 291 289 301 338 311 326 324 330 330 333 89 150
197 222 236 204 207 207 193 205 223 223 220 238 233 231 229 225 207 188 170 153 162 158 154 190 240 265 252 251 248 230 228 240 240 240 281 295 331 297 313 324 308 293 245
113 209 212 208 201 190 201 213 216 216 216 222 220 208 203 199 192 179 172 175 177 178 167 175 190 207 200 208 200 206 214 200 188 207 239 274 293 298 308 307 277 241 219